Total_Precipitation_Accumulation
0.62 0.74 0.87 0.94 0.83 0.62 0.53 0.47 0.39 0.33 0.30 0.26 0.11 0.01 0.01 0.00 0.00 0.00 0.00 0.00 0.00 0.00 0.00 0.00 0.00 0.00 0.00 0.00 0.00 0.00 0.00 0.00 0.00 0.00 0.00 0.00 0.01 0.01
0.47 0.58 0.66 0.73 0.86 0.81 0.65 0.57 0.47 0.36 0.30 0.24 0.24 0.08 0.04 0.02 0.01 0.00 0.00 0.00 0.00 0.00 0.00 0.00 0.00 0.00 0.00 0.00 0.00 0.00 0.00 0.00 0.00 0.00 0.00 0.00 0.00 0.01
0.25 0.34 0.47 0.68 0.88 0.88 0.81 0.68 0.57 0.47 0.38 0.26 0.21 0.11 0.07 0.05 0.04 0.01 0.00 0.00 0.00 0.00 0.00 0.00 0.00 0.00 0.00 0.00 0.00 0.00 0.00 0.00 0.00 0.00 0.00 0.00 0.00 0.01
0.16 0.19 0.31 0.56 0.81 0.94 0.99 0.92 0.78 0.66 0.63 0.51 0.30 0.15 0.11 0.10 0.07 0.04 0.02 0.01 0.00 0.00 0.00 0.00 0.00 0.00 0.00 0.00 0.00 0.00 0.00 0.00 0.00 0.01 0.01 0.01 0.01 0.01
0.21 0.21 0.22 0.35 0.57 0.76 0.88 0.92 0.87 0.81 0.79 0.69 0.48 0.32 0.23 0.14 0.08 0.05 0.03 0.02 0.02 0.01 0.00 0.00 0.00 0.00 0.00 0.00 0.00 0.00 0.00 0.00 0.00 0.00 0.00 0.01 0.00 0.00
0.14 0.19 0.22 0.24 0.34 0.48 0.62 0.73 0.86 0.94 0.94 0.87 0.68 0.43 0.38 0.23 0.11 0.07 0.06 0.03 0.02 0.02 0.01 0.00 0.00 0.00 0.00 0.00 0.00 0.00 0.00 0.00 0.00 0.00 0.00 0.00 0.00 0.00
0.05 0.07 0.11 0.15 0.20 0.29 0.37 0.54 0.79 0.96 1.01 1.01 0.91 0.62 0.42 0.29 0.15 0.10 0.08 0.07 0.04 0.01 0.01 0.01 0.00 0.00 0.00 0.00 0.00 0.00 0.00 0.00 0.00 0.00 0.00 0.00 0.00 0.00
0.05 0.04 0.05 0.06 0.10 0.16 0.21 0.28 0.46 0.63 0.76 0.79 0.79 0.64 0.48 0.38 0.30 0.20 0.11 0.07 0.06 0.04 0.02 0.03 0.01 0.01 0.01 0.01 0.00 0.00 0.00 0.00 0.00 0.00 0.00 0.00 0.00 0.00
0.06 0.04 0.03 0.02 0.03 0.06 0.11 0.17 0.21 0.27 0.38 0.54 0.59 0.60 0.67 0.55 0.39 0.26 0.18 0.12 0.10 0.08 0.05 0.04 0.03 0.01 0.02 0.01 0.00 0.00 0.00 0.00 0.00 0.00 0.00 0.00 0.00 0.00
0.08 0.05 0.04 0.03 0.03 0.04 0.05 0.08 0.12 0.19 0.24 0.26 0.34 0.53 0.68 0.78 0.65 0.46 0.37 0.27 0.19 0.12 0.09 0.06 0.04 0.03 0.01 0.01 0.00 0.00 0.00 0.00 0.00 0.00 0.00 0.00 0.00 0.00
0.15 0.09 0.06 0.05 0.07 0.07 0.06 0.08 0.12 0.20 0.22 0.29 0.39 0.45 0.50 0.57 0.60 0.51 0.43 0.36 0.28 0.21 0.18 0.12 0.07 0.05 0.03 0.01 0.01 0.00 0.00 0.00 0.00 0.00 0.00 0.00 0.00 0.00
0.23 0.15 0.16 0.14 0.14 0.11 0.09 0.11 0.12 0.14 0.19 0.24 0.26 0.26 0.27 0.31 0.37 0.38 0.40 0.40 0.35 0.28 0.23 0.18 0.13 0.11 0.07 0.04 0.02 0.01 0.01 0.01 0.01 0.00 0.00 0.00 0.00 0.00
0.24 0.21 0.18 0.22 0.18 0.14 0.10 0.08 0.12 0.11 0.11 0.14 0.13 0.14 0.15 0.16 0.20 0.27 0.31 0.32 0.35 0.38 0.32 0.25 0.19 0.16 0.12 0.09 0.06 0.04 0.03 0.02 0.01 0.01 0.01 0.01 0.01 0.00
0.26 0.26 0.24 0.33 0.24 0.13 0.07 0.07 0.10 0.08 0.07 0.09 0.09 0.11 0.13 0.14 0.13 0.18 0.22 0.22 0.22 0.25 0.25 0.20 0.17 0.16 0.16 0.13 0.11 0.10 0.09 0.07 0.05 0.04 0.04 0.04 0.03 0.02
0.26 0.31 0.34 0.30 0.19 0.12 0.10 0.11 0.10 0.09 0.09 0.10 0.09 0.09 0.08 0.10 0.15 0.21 0.26 0.28 0.28 0.24 0.22 0.21 0.19 0.16 0.15 0.12 0.10 0.09 0.09 0.08 0.07 0.06 0.06 0.05 0.05 0.04
0.19 0.25 0.26 0.18 0.13 0.13 0.12 0.11 0.11 0.12 0.11 0.08 0.06 0.05 0.05 0.06 0.08 0.13 0.21 0.30 0.37 0.38 0.38 0.38 0.33 0.27 0.24 0.20 0.14 0.11 0.10 0.09 0.09 0.10 0.10 0.08 0.08 0.07
0.35 0.25 0.23 0.21 0.19 0.14 0.09 0.08 0.10 0.11 0.10 0.07 0.06 0.05 0.06 0.06 0.05 0.06 0.08 0.13 0.20 0.26 0.32 0.38 0.43 0.41 0.36 0.31 0.27 0.22 0.18 0.16 0.14 0.14 0.13 0.12 0.10 0.10
0.63 0.59 0.57 0.54 0.47 0.33 0.14 0.06 0.05 0.06 0.07 0.06 0.05 0.05 0.05 0.06 0.07 0.06 0.06 0.09 0.12 0.15 0.19 0.24 0.33 0.41 0.44 0.40 0.32 0.28 0.26 0.22 0.20 0.20 0.18 0.16 0.14 0.14
0.75 0.79 0.76 0.62 0.47 0.36 0.22 0.10 0.08 0.07 0.06 0.06 0.05 0.05 0.05 0.05 0.05 0.04 0.04 0.05 0.07 0.09 0.13 0.18 0.23 0.30 0.36 0.33 0.30 0.30 0.30 0.29 0.29 0.27 0.26 0.24 0.20 0.21
0.62 0.60 0.52 0.42 0.34 0.22 0.18 0.14 0.08 0.07 0.08 0.07 0.07 0.06 0.04 0.03 0.03 0.03 0.03 0.03 0.03 0.04 0.06 0.08 0.11 0.13 0.16 0.19 0.20 0.19 0.23 0.27 0.28 0.25 0.23 0.24 0.22 0.24
0.33 0.27 0.21 0.17 0.15 0.11 0.09 0.08 0.05 0.04 0.04 0.04 0.05 0.05 0.04 0.03 0.02 0.02 0.03 0.04 0.04 0.04 0.04 0.04 0.05 0.09 0.12 0.18 0.20 0.14 0.14 0.23 0.26 0.23 0.22 0.24 0.25 0.25
0.12 0.10 0.07 0.05 0.05 0.04 0.03 0.02 0.02 0.02 0.02 0.02 0.03 0.03 0.03 0.03 0.03 0.03 0.03 0.04 0.04 0.04 0.04 0.04 0.05 0.08 0.11 0.14 0.17 0.16 0.15 0.20 0.30 0.38 0.33 0.29 0.24 0.20
0.06 0.06 0.03 0.02 0.01 0.01 0.02 0.03 0.03 0.03 0.03 0.03 0.03 0.03 0.03 0.02 0.02 0.03 0.04 0.04 0.04 0.04 0.04 0.05 0.06 0.08 0.11 0.12 0.15 0.19 0.22 0.23 0.25 0.32 0.39 0.46 0.36 0.23